GFSNGP_500_spd_000.txt.gz
Wind_Speed
24 20 25 19 14 17 19 23 24 21 36 33 28 20 32 15 10 17 17 21 24 27 26 25 22 20 19 20 22 20 21 25 28 24 21 20 16 13 10 9 10 8 7 9
29 25 17 16 18 15 17 14 18 19 31 35 37 32 34 10 5 14 20 23 23 26 25 22 20 18 18 22 19 18 20 24 27 25 22 19 17 14 14 12 9 9 10 10
30 28 25 23 22 23 25 22 19 22 32 41 35 10 3 2 11 17 19 21 24 27 26 23 20 20 20 20 23 23 23 23 20 24 22 21 16 11 13 13 14 11 12 15
25 24 29 24 33 31 18 20 16 30 37 39 36 15 12 14 19 22 24 25 29 30 27 22 20 21 23 23 23 24 23 24 19 19 18 14 11 10 14 15 18 20 19 19
29 27 23 25 29 35 21 25 25 25 38 35 26 22 23 21 22 26 29 29 32 29 27 23 22 23 22 24 28 26 22 20 17 15 11 15 14 15 16 19 23 25 23 22
24 26 29 20 30 30 22 26 32 39 46 32 28 30 28 28 23 28 31 31 33 28 27 25 23 22 22 24 24 23 21 18 17 19 17 17 17 17 20 22 21 21 22 21
38 35 26 25 38 39 37 34 34 35 38 32 32 29 30 30 28 29 30 31 31 31 28 24 22 21 22 22 20 19 17 16 17 19 19 22 23 23 24 22 21 24 25 26
35 35 38 36 43 40 40 38 41 39 35 31 36 25 32 32 32 35 33 31 31 30 26 26 22 22 23 21 21 20 18 17 19 19 22 21 24 24 23 23 24 26 26 24
33 35 39 44 49 46 44 42 41 35 34 34 38 38 37 38 39 38 35 33 32 30 27 26 25 25 24 21 21 22 22 24 22 19 19 21 23 26 29 27 25 24 23 17
29 36 33 56 50 47 45 30 29 31 31 33 34 34 35 36 38 37 36 35 33 31 30 27 26 26 25 23 23 25 28 28 26 23 22 23 26 28 26 27 28 32 28 24
35 34 44 28 48 32 33 36 33 34 35 33 34 34 30 30 32 35 36 35 35 32 30 27 27 27 27 28 29 30 32 33 30 26 23 22 22 25 27 27 26 26 25 24
47 42 15 18 33 39 45 45 41 43 38 37 38 39 36 34 31 30 30 32 31 32 31 28 27 30 28 28 30 32 31 30 27 24 21 20 19 19 21 22 24 24 23 22
39 50 53 41 31 19 37 49 51 43 37 36 35 35 33 33 31 27 28 29 28 28 29 29 29 28 30 31 31 31 28 26 24 21 20 19 18 18 19 19 19 19 19 19
41 44 42 32 39 37 51 44 36 34 35 32 30 31 31 31 27 26 27 24 23 24 24 27 29 30 30 32 30 27 24 23 23 23 21 20 20 18 17 16 17 18 19 20
41 39 41 41 46 58 52 25 26 28 30 30 30 30 30 29 28 28 29 28 27 26 27 28 28 29 32 31 28 24 23 23 21 20 19 18 14 12 12 14 17 19 21 23
47 37 42 44 39 28 22 23 25 27 29 31 32 33 34 35 35 34 31 29 29 29 26 25 27 29 27 25 22 21 20 19 17 16 13 13 15 16 18 19 20 21 23 27
43 43 35 45 28 25 25 24 30 29 28 28 28 31 32 33 33 32 31 32 31 30 30 28 27 26 24 22 22 20 18 17 17 19 18 20 19 19 21 22 23 26 30 32
51 53 21 27 39 46 47 32 29 33 34 32 30 30 33 32 30 30 31 32 33 32 29 27 25 24 22 23 22 19 20 19 18 20 21 20 20 23 27 27 29 31 32 34
32 33 38 32 34 33 31 32 38 36 35 35 32 31 32 30 28 28 27 25 24 23 24 22 25 28 29 29 21 19 19 21 19 19 23 22 22 23 26 29 30 33 36 38
23 24 23 24 17 19 28 27 33 38 39 35 31 27 26 28 26 23 25 24 20 27 25 27 31 34 34 25 17 16 16 19 20 17 20 22 22 25 28 30 33 38 41 45
22 21 20 22 23 24 25 25 26 28 30 28 26 26 27 24 24 23 23 24 27 31 29 32 24 18 14 13 14 16 15 14 18 21 22 24 25 29 31 35 38 42 45 46
19 19 18 20 20 21 24 25 24 25 27 27 27 24 22 22 23 23 25 27 37 32 34 35 24 16 13 13 10 10 13 18 21 22 25 26 30 33 36 40 43 46 46 42
23 23 20 21 21 24 24 23 24 24 22 21 22 23 25 23 29 32 24 26 30 28 17 11 11 11 10 9 13 17 18 20 21 24 26 30 35 38 41 44 46 43 38 35
25 25 25 21 23 21 20 19 18 19 21 21 20 22 22 32 26 24 26 20 12 7 7 7 6 8 10 13 16 19 21 23 25 28 32 35 39 42 43 43 38 34 32 30
25 24 21 20 19 18 21 18 16 15 15 17 22 20 17 17 22 18 14 9 4 2 6 7 12 15 18 20 22 23 25 27 30 34 37 40 43 43 39 35 32 30 28 27
17 16 14 13 12 14 13 12 16 12 11 10 8 9 12 14 9 5 2 3 7 9 12 17 19 20 22 23 26 27 29 33 36 39 42 43 40 36 32 30 28 27 27 27
9 8 10 11 11 15 15 12 10 10 10 14 18 15 12 8 4 2 6 11 14 17 18 18 20 22 27 28 30 33 36 39 42 43 42 37 32 30 28 27 27 27 27 26

GFSNGP_500_spd_006.txt.gz
Wind_Speed
29 25 34 33 29 28 23 18 22 20 19 23 25 24 24 32 40 50 13 2 11 5 5 7 10 12 13 10 10 12 14 16 20 20 19 14 11 7 5 6 6 3 2 2
34 25 37 34 34 28 28 25 22 29 12 13 18 22 27 32 33 33 22 12 6 8 1 11 12 12 13 10 11 14 15 17 19 18 17 14 14 12 6 7 7 6 6 6
37 26 35 39 34 28 25 20 8 15 17 15 21 25 30 34 36 31 18 14 10 8 16 15 15 14 13 11 12 14 18 15 16 16 12 10 11 12 10 8 10 9 9 11
37 31 36 38 39 36 28 27 26 22 21 24 27 31 34 31 26 19 12 13 11 13 17 18 20 20 18 13 14 15 15 13 12 15 14 11 10 11 12 14 16 18 19 18
35 27 30 37 37 36 33 31 28 28 30 31 32 32 26 23 19 19 17 16 15 19 21 20 22 23 24 20 16 16 14 15 12 14 11 10 13 14 15 15 17 18 19 20
29 25 26 29 35 42 42 39 35 33 33 33 34 28 24 28 25 21 21 20 22 23 24 25 24 25 24 22 18 16 14 14 13 11 8 10 10 11 13 15 16 18 21 19
33 29 28 26 29 37 41 40 36 35 34 31 31 27 25 27 21 21 18 22 23 26 27 28 28 26 24 23 20 18 17 16 14 11 11 12 13 14 17 19 19 19 20 22
39 36 33 26 28 36 36 38 36 39 32 30 29 26 26 25 24 23 26 26 26 28 31 31 30 27 25 25 23 20 19 18 17 17 16 18 18 18 20 21 22 22 23 24
46 43 38 31 31 30 34 43 36 33 33 33 28 24 22 25 28 29 31 31 31 32 31 30 31 29 27 26 25 24 22 19 20 21 23 23 21 23 19 26 25 25 27 28
42 43 40 36 36 33 32 31 29 32 35 32 27 30 28 24 25 25 25 26 27 26 25 26 28 27 26 27 26 24 23 23 21 21 20 20 18 21 26 25 26 27 28 27
42 41 38 38 38 37 36 37 34 35 32 46 47 37 28 27 28 31 29 29 31 31 31 31 30 30 27 25 25 22 22 24 23 21 20 20 22 22 25 26 27 27 25 24
41 42 41 40 38 35 34 32 36 31 26 32 35 29 28 25 22 28 33 38 38 37 36 33 31 28 26 24 23 22 22 24 22 22 21 23 23 24 24 26 25 24 23 22
42 42 41 44 45 43 37 35 36 36 33 21 14 19 22 24 26 25 30 30 31 33 31 29 27 25 22 21 20 20 21 22 21 19 21 22 24 25 26 26 25 23 20 18
45 44 43 37 38 37 44 46 43 39 29 22 33 33 32 33 37 34 28 30 29 28 25 25 24 22 22 23 24 24 25 25 22 21 21 22 24 25 24 23 20 17 15 14
46 48 53 53 44 43 44 43 42 39 41 42 42 42 40 35 29 29 33 31 26 25 25 26 26 25 25 23 25 27 27 24 23 21 22 22 22 22 19 17 16 15 17 19
49 50 52 50 54 49 49 50 42 41 43 36 32 33 33 37 30 33 35 32 29 27 29 28 28 27 26 27 27 27 27 26 26 24 22 20 19 18 17 20 20 19 20 21
45 45 51 55 54 55 54 53 52 49 46 35 34 33 33 31 33 28 27 28 28 26 25 27 28 28 28 28 30 31 29 23 24 24 22 21 20 20 22 23 23 23 23 26
48 48 50 51 51 48 45 44 43 37 31 27 22 21 27 26 23 22 21 21 24 25 24 22 24 26 26 25 24 24 24 23 25 26 27 28 26 23 22 23 25 26 23 25
42 44 46 48 47 50 51 50 45 44 39 25 21 20 28 31 28 25 24 24 25 27 27 26 25 25 25 23 25 28 24 25 31 35 32 32 32 26 23 22 22 23 25 28
34 36 36 33 36 38 41 41 45 43 32 32 25 18 22 31 32 28 25 24 25 26 25 25 26 27 23 25 23 23 26 29 33 34 27 24 19 17 18 22 25 27 29 32
29 27 27 23 25 27 32 27 27 28 28 22 26 26 27 35 33 30 26 27 26 22 22 21 22 22 26 23 21 26 27 27 28 25 17 18 19 21 26 28 28 30 32 35
19 25 19 16 14 15 19 23 33 15 15 19 20 22 24 24 25 24 22 20 20 20 21 21 18 16 18 22 26 25 17 18 20 19 16 17 25 28 29 31 33 34 36 37
12 19 15 18 12 22 17 15 13 17 18 17 19 21 22 23 22 18 22 21 20 17 14 17 19 21 24 24 20 16 15 15 14 17 22 25 26 28 29 31 33 36 39 40
17 18 19 17 15 12 13 15 15 17 19 20 18 17 17 22 22 21 18 14 11 13 16 22 26 25 21 17 14 12 15 21 24 26 28 29 30 32 34 36 39 41 43 41
16 18 18 17 17 16 17 18 18 19 18 15 14 17 16 16 18 16 20 16 14 20 20 19 16 15 14 15 18 21 24 26 28 30 31 33 35 37 39 42 44 41 40 38
24 22 21 19 16 17 18 19 19 17 13 17 12 15 17 19 16 16 16 18 14 11 11 12 16 18 21 23 24 26 27 28 29 31 34 36 39 42 44 44 44 39 35 34
24 23 19 19 19 18 16 15 15 16 17 14 15 18 13 12 16 22 20 10 11 13 15 17 20 22 25 26 27 28 29 31 33 34 36 40 43 45 45 40 36 34 32 32

GFSNGP_500_spd_009.txt.gz
Wind_Speed
24 23 36 33 28 28 29 30 27 24 20 11 14 15 18 16 23 25 31 22 12 7 2 7 11 11 15 13 11 11 12 13 19 21 19 17 13 13 11 10 11 9 8 7
29 27 27 41 32 34 33 34 31 27 22 15 14 11 13 18 20 25 32 14 10 7 5 7 8 10 13 11 10 12 14 14 17 21 19 13 13 12 11 10 11 11 10 9
35 32 24 30 32 32 35 37 31 23 22 20 17 11 18 20 24 28 26 14 5 5 6 8 7 8 7 11 12 14 14 15 13 17 16 12 12 10 11 12 14 14 13 14
37 37 35 28 24 34 36 38 32 25 21 13 13 19 20 23 27 25 18 19 12 12 9 11 11 13 12 10 11 15 13 13 13 15 13 10 8 8 10 12 15 17 18 19
45 41 39 34 32 33 37 38 39 36 29 21 19 21 22 24 29 24 22 24 20 16 17 19 17 17 16 18 15 11 11 10 9 12 12 11 8 6 9 12 14 17 18 19
48 45 41 30 30 31 40 45 42 35 29 25 25 23 24 30 27 24 23 20 23 21 19 20 22 22 22 22 20 21 14 10 10 12 11 9 9 10 9 13 14 15 17 19
53 43 35 30 27 25 32 39 41 38 34 33 30 29 29 31 27 23 20 22 17 19 21 24 25 24 25 23 22 21 21 16 13 14 16 15 15 16 15 17 15 15 16 19
52 50 39 28 24 25 29 33 37 37 35 30 33 31 30 28 24 23 20 21 23 24 27 27 27 26 25 24 24 23 22 20 19 20 19 19 20 21 22 22 21 19 19 20
49 46 43 35 30 29 29 31 34 32 27 29 29 30 32 29 27 25 25 27 28 27 26 26 25 22 21 22 24 23 23 22 21 20 20 23 24 24 25 27 24 24 27 27
48 47 44 39 31 32 32 28 29 27 28 32 32 24 27 28 34 29 31 30 28 28 28 28 26 26 27 26 26 23 24 23 21 21 22 22 23 20 34 33 26 31 33 31
44 43 43 43 37 33 36 35 33 30 30 29 30 29 30 33 39 36 32 30 29 31 32 34 34 33 33 32 28 25 22 21 22 21 22 24 24 26 28 30 30 33 32 34
43 42 42 40 38 34 33 33 34 34 34 35 34 29 27 36 30 22 22 20 24 28 30 32 32 32 31 29 28 24 20 18 19 21 23 25 27 29 28 34 36 37 36 34
41 41 38 39 43 40 35 33 31 30 29 30 32 31 27 14 14 16 28 34 29 37 32 31 29 29 28 24 22 21 20 18 20 22 23 25 26 28 30 32 34 35 35 34
44 44 43 40 38 39 37 35 34 34 32 31 33 29 24 22 25 26 32 35 37 33 30 34 33 27 24 23 23 25 25 22 22 24 24 25 28 28 30 32 33 33 30 27
46 46 46 46 43 41 40 37 29 31 31 34 37 39 30 39 37 29 31 31 31 33 34 33 28 26 26 26 26 26 27 25 26 26 28 28 28 29 30 31 29 26 24 23
45 47 47 46 44 43 44 44 48 33 32 34 34 33 31 32 35 36 34 38 35 35 35 31 27 26 26 27 26 26 25 25 27 29 30 30 30 28 27 26 24 24 24 25
38 45 46 49 46 44 45 45 46 43 41 42 42 38 38 40 38 35 37 36 32 34 27 24 23 21 20 20 21 23 23 26 28 29 27 25 27 29 30 29 29 28 26 26
36 36 41 49 48 45 46 46 46 46 45 43 41 41 36 26 24 28 29 25 24 21 21 20 19 20 21 22 23 25 24 24 25 27 27 26 29 32 34 32 29 28 30 31
33 36 38 40 44 46 46 43 44 43 40 37 35 31 31 33 31 32 27 25 24 22 21 21 21 22 23 23 23 23 24 25 26 27 28 31 34 36 36 36 35 34 25 26
33 32 34 36 39 41 42 38 37 39 37 38 40 36 33 33 30 27 28 29 29 26 23 24 24 24 24 23 25 26 26 29 30 29 31 32 32 32 29 20 18 23 25 28
26 27 27 23 27 32 35 34 35 33 28 28 26 24 30 33 34 37 35 35 31 29 25 29 26 23 20 22 23 24 26 28 29 31 32 30 27 20 21 19 19 27 28 30
18 20 19 17 17 17 16 21 25 26 24 22 20 21 24 23 26 30 31 28 26 24 24 24 22 23 22 23 23 24 24 26 28 26 23 23 23 21 19 27 30 31 33 37
14 14 16 16 19 21 18 18 19 22 21 15 16 18 19 22 23 23 23 22 20 18 20 21 25 23 21 25 25 24 22 23 23 23 20 19 21 25 28 30 34 36 36 39
10 20 18 18 13 9 25 27 20 18 17 20 20 18 20 22 19 17 18 20 21 23 23 20 21 22 25 27 26 24 22 21 21 23 25 26 29 33 33 33 34 36 38 39
11 11 15 14 12 15 17 19 18 15 15 15 17 19 19 19 19 19 17 19 21 23 24 22 25 27 20 19 20 23 25 27 28 29 31 33 34 34 35 37 39 40 42 43
16 16 15 14 13 13 12 11 12 15 16 18 17 15 17 14 13 15 18 23 18 18 23 26 20 19 22 24 25 27 29 31 32 33 35 36 38 39 41 42 44 45 44 43
16 17 16 13 13 15 15 15 16 18 18 16 19 16 16 21 19 19 21 20 18 18 17 19 22 23 25 27 29 31 33 34 35 37 38 39 41 43 45 46 47 47 44 39

GFSNGP_500_spd_015.txt.gz
Wind_Speed
23 23 24 24 24 26 24 23 22 21 20 14 12 13 12 12 7 11 13 14 15 13 7 6 3 6 4 5 5 7 8 12 13 15 11 12 14 11 9 8 9 9 9 8
24 26 23 23 26 28 32 30 28 27 23 17 15 18 15 15 12 10 14 16 13 13 4 6 3 2 6 9 9 9 11 14 15 17 14 12 11 15 11 10 10 10 9 9
24 22 24 26 26 24 25 28 30 30 30 28 25 20 12 16 16 13 14 15 13 13 15 14 10 10 10 13 14 13 13 15 16 15 16 15 11 14 12 11 13 14 12 12
32 29 24 21 19 22 20 21 22 18 20 26 27 19 13 16 18 16 16 17 15 13 16 18 10 13 15 13 15 15 15 17 18 17 18 17 16 14 15 13 12 13 14 13
40 36 30 24 20 18 16 17 19 19 22 22 24 18 20 18 20 20 17 17 15 18 18 19 12 16 19 19 18 21 20 19 19 17 20 21 19 18 18 17 15 17 17 17
37 39 37 29 25 24 23 25 23 25 28 27 25 24 19 19 21 20 22 21 19 16 15 16 18 16 21 23 25 22 21 21 22 21 20 21 22 20 22 23 22 22 22 22
37 39 40 38 33 30 29 27 28 27 29 26 23 18 23 23 23 22 22 17 16 16 17 16 17 20 25 22 21 21 20 20 21 21 23 23 22 23 25 26 27 27 27 27
38 39 40 38 41 38 33 32 28 24 26 25 22 19 18 21 19 19 15 16 17 18 19 19 20 24 25 24 23 22 21 22 24 23 24 25 26 25 26 28 30 31 32 33
42 40 38 38 38 41 41 39 34 30 28 25 23 21 19 18 18 20 19 15 16 17 21 25 26 26 25 26 25 24 27 29 28 27 27 26 25 25 27 29 30 31 33 30
43 42 42 39 39 40 38 37 35 30 28 27 24 22 22 18 21 20 19 16 20 25 30 31 30 27 24 23 25 26 25 24 22 25 27 28 27 27 29 30 30 33 34 34
46 45 43 43 42 39 36 33 31 28 27 30 29 26 23 23 23 24 22 25 25 28 30 32 27 24 23 24 24 24 25 24 26 28 30 31 29 27 28 28 30 33 32 30
47 47 46 45 44 41 39 36 33 31 29 28 29 30 25 25 24 25 23 23 24 23 23 20 17 22 24 23 26 27 28 28 29 32 33 33 31 30 31 29 31 31 32 31
47 47 46 46 44 41 38 37 35 32 32 32 31 30 30 29 29 27 30 28 27 25 26 27 24 22 25 27 28 29 31 31 34 36 33 31 30 32 32 34 35 35 35 35
32 46 46 46 43 41 42 39 36 33 31 28 28 26 27 28 28 31 29 26 27 29 32 34 32 31 32 33 35 36 37 37 39 39 34 33 33 33 34 36 36 35 35 35
35 34 40 41 42 42 37 35 37 34 32 33 31 29 27 27 28 28 27 29 33 33 32 34 37 37 40 41 41 40 41 42 37 33 34 34 34 35 36 36 35 35 35 35
34 28 28 29 38 40 42 41 34 35 34 32 29 28 28 27 29 30 31 31 31 29 30 32 37 39 39 39 38 37 35 32 30 30 31 32 34 35 35 35 34 33 34 33
38 34 35 30 30 35 38 38 37 34 31 31 31 30 29 29 28 27 28 30 32 34 35 35 33 32 33 32 26 26 26 28 28 30 32 34 36 36 34 33 33 33 32 32
46 41 40 34 29 29 32 41 42 45 44 42 38 35 32 31 31 32 35 35 35 34 33 30 32 31 30 30 29 30 30 31 33 34 36 37 36 34 33 35 35 33 32 34
37 37 36 35 31 30 30 30 32 36 40 42 41 38 36 34 33 32 32 31 29 29 29 31 35 36 32 31 31 32 33 33 33 34 34 35 34 35 35 36 35 36 36 34
36 28 22 28 32 30 29 29 29 30 33 37 39 38 36 34 32 31 29 28 31 34 36 36 33 30 28 28 31 34 34 34 33 33 32 31 31 34 35 35 35 34 31 29
22 25 26 26 31 29 29 30 32 29 27 28 28 29 31 30 28 27 27 28 30 31 31 31 33 31 27 26 27 29 28 29 31 33 33 33 32 32 32 32 31 29 27 26
28 27 24 24 26 30 32 31 29 29 27 29 26 25 26 25 25 26 26 28 30 30 27 25 23 22 22 22 22 26 25 26 29 32 31 29 27 25 27 28 30 28 26 25
22 23 23 25 28 27 26 28 28 25 26 24 22 21 22 22 23 26 26 21 19 20 21 22 22 20 20 20 23 25 30 30 30 28 24 24 25 26 26 26 27 28 29 31
15 17 18 18 19 20 20 22 23 23 22 27 27 28 24 22 23 19 16 22 20 18 18 20 20 19 18 20 25 27 29 29 24 26 28 28 30 30 30 31 32 33 33 34
14 14 15 17 16 17 19 19 18 17 19 21 19 18 17 19 19 17 20 21 19 17 19 19 18 20 29 29 30 27 27 25 27 29 31 33 34 35 35 37 38 40 41 41
14 16 16 17 18 15 13 16 19 20 12 10 11 11 13 16 18 19 20 18 19 21 19 21 23 23 25 25 26 27 26 29 33 37 40 42 42 43 43 44 44 44 45 45
8 10 9 10 24 16 11 13 11 15 15 13 14 16 19 20 19 16 17 20 26 24 26 24 22 24 27 29 29 31 36 39 41 42 44 45 45 46 45 45 45 45 45 45

GFSNGP_500_spd_021.txt.gz
Wind_Speed
24 27 16 16 13 13 19 19 21 17 31 20 19 21 19 14 10 13 13 12 19 22 18 12 16 12 5 2 4 6 8 9 10 12 10 9 9 9 10 10 10 9 9 9
28 22 22 22 20 21 16 19 18 15 20 23 17 19 16 15 16 16 15 13 16 19 15 15 13 10 7 6 8 9 11 11 11 10 8 8 8 8 11 9 9 10 9 8
28 19 16 23 20 19 18 18 18 19 18 21 22 19 18 17 14 12 13 15 16 15 13 12 13 11 12 12 11 12 13 14 17 16 15 12 10 10 12 12 12 12 11 10
26 20 23 19 14 18 18 19 20 21 22 21 16 24 21 16 14 16 15 16 18 17 16 15 16 11 12 12 13 13 14 15 17 17 16 16 13 14 16 15 14 14 15 15
31 29 22 17 20 27 20 23 19 23 26 36 29 24 22 19 16 20 18 17 18 20 21 18 14 13 12 10 10 12 13 13 14 16 15 15 15 17 18 18 17 17 18 21
32 32 27 17 19 29 26 30 24 26 31 17 26 22 23 17 16 20 26 22 19 20 20 21 16 15 14 13 16 15 14 15 15 15 16 16 17 19 19 17 18 19 21 21
33 35 31 21 32 29 28 25 30 33 23 27 27 23 25 23 20 21 23 23 23 21 22 24 22 18 17 17 16 20 20 19 17 18 21 22 22 23 23 21 20 21 23 24
36 37 36 34 32 32 29 29 31 34 34 33 29 24 23 23 19 20 24 24 25 24 25 25 24 22 19 17 20 20 21 23 20 20 21 20 20 19 18 19 21 23 24 26
34 31 38 38 36 34 32 28 28 30 34 34 28 26 23 25 20 20 25 27 25 27 26 26 25 22 20 22 24 26 24 20 20 21 20 18 19 20 21 22 26 28 30 31
38 36 43 38 39 36 35 34 32 32 32 30 27 25 27 26 23 20 23 27 29 29 28 28 25 22 21 22 22 22 18 19 19 19 20 22 26 28 28 30 31 32 33 33
40 45 42 44 41 37 37 37 37 36 35 32 28 27 28 28 26 25 25 25 27 28 29 28 28 28 26 23 22 20 20 19 21 23 26 29 30 32 34 36 35 37 38 39
43 50 45 44 38 38 39 39 38 38 37 35 32 30 29 28 27 28 28 26 27 31 30 33 33 28 25 26 25 24 24 26 29 31 34 35 35 34 36 37 39 41 42 42
50 45 42 43 42 43 41 40 39 38 38 37 35 33 30 29 28 28 28 30 31 30 28 29 30 30 29 29 29 30 32 32 34 35 34 33 38 39 40 41 43 43 42 41
44 44 46 47 46 41 42 43 44 41 41 39 38 36 34 33 32 32 32 32 32 33 35 35 34 34 33 32 32 33 34 36 36 35 36 38 40 40 41 41 39 38 37 36
46 48 49 51 46 48 46 45 45 42 41 41 40 39 36 35 32 33 33 33 33 33 33 34 33 31 30 32 33 35 36 36 37 38 40 40 42 40 38 37 37 37 38 38
46 46 46 49 49 49 45 46 47 44 40 43 42 41 39 37 33 33 33 32 32 31 30 32 33 34 33 34 35 37 38 39 41 42 42 42 40 40 40 40 40 39 39 39
46 46 46 50 48 47 45 40 44 45 43 42 44 45 42 39 35 35 36 37 36 35 33 33 34 39 39 40 39 40 42 43 43 41 41 41 41 39 40 40 40 40 39 40
37 40 42 45 45 41 37 32 35 39 40 43 41 41 40 41 41 41 41 41 36 36 35 37 38 38 40 41 44 44 43 43 43 42 42 41 40 39 38 39 40 39 38 38
30 35 37 41 43 44 42 42 36 35 36 33 37 42 40 31 29 35 41 38 37 34 34 35 37 41 43 43 43 43 44 43 42 43 40 39 39 38 35 34 33 34 36 37
31 33 38 42 45 42 44 42 36 23 37 36 41 34 43 38 38 35 36 36 37 30 35 39 40 41 41 42 42 43 41 41 38 38 36 34 32 30 31 31 34 36 37 34
30 30 33 42 44 49 49 43 44 40 39 35 37 30 33 43 46 49 41 39 35 36 37 38 38 36 36 38 39 40 38 35 34 34 34 33 34 35 34 37 38 36 30 29
27 25 26 29 33 35 45 44 42 44 32 33 34 29 30 34 37 38 36 32 31 33 33 34 33 34 34 35 35 34 33 33 33 32 33 33 35 35 35 35 31 32 33 36
19 18 19 22 24 29 29 30 37 35 32 36 34 31 32 30 29 30 30 30 29 30 28 27 30 29 30 29 30 31 32 30 30 29 30 33 37 36 34 33 34 38 41 44
12 12 18 20 22 24 25 28 29 28 32 33 33 30 27 27 24 26 29 28 26 24 26 28 30 26 24 25 29 29 29 27 27 32 36 36 36 37 37 38 40 45 49 49
9 12 11 14 16 22 17 18 19 21 23 24 27 27 26 22 15 17 19 23 20 23 25 27 23 22 25 26 27 27 29 31 36 36 38 38 37 39 42 46 49 50 48 49
7 8 9 9 10 13 15 16 18 22 22 23 24 23 18 21 22 16 15 19 14 14 16 20 24 24 24 26 30 29 29 25 28 32 34 37 40 43 45 46 49 50 50 50
8 10 10 11 12 12 14 15 16 20 22 20 25 23 19 18 17 20 21 20 20 20 18 17 21 23 26 25 23 23 25 27 30 33 36 39 40 42 43 43 43 44 45 45

GFSNGP_500_spd_024.txt.gz
Wind_Speed
25 26 17 12 15 11 16 15 20 19 25 33 35 33 32 16 14 14 14 13 13 16 20 28 15 12 14 12 8 9 8 8 11 13 14 12 12 13 13 12 12 13 12 11
29 24 23 23 22 23 24 18 19 24 25 32 38 35 25 1 17 20 18 15 13 13 16 21 17 21 11 9 9 10 10 10 11 14 13 10 11 12 11 13 13 13 13 11
28 26 23 25 22 22 23 20 22 19 23 40 34 36 6 13 16 20 18 14 14 14 15 18 18 19 17 14 11 11 15 15 13 13 12 12 11 14 13 13 14 15 14 14
29 26 27 18 22 22 24 16 18 19 31 34 36 37 21 15 19 13 16 15 16 18 15 16 20 20 15 18 17 11 15 16 14 14 12 13 11 15 14 13 15 16 17 18
29 28 26 21 28 23 14 17 24 26 31 30 26 14 14 14 22 15 15 18 19 19 16 16 20 18 19 15 17 9 14 15 15 14 13 14 11 14 16 16 16 17 19 19
30 32 32 24 23 22 17 21 32 30 34 33 32 53 21 17 18 17 17 18 21 22 19 15 19 21 17 18 19 17 17 19 19 17 16 16 15 17 20 22 20 19 21 21
32 34 34 30 31 39 37 27 29 26 31 39 37 32 12 22 26 24 23 21 20 23 17 17 22 23 22 20 20 20 18 20 23 22 19 18 18 17 18 17 15 14 16 19
33 35 36 33 36 43 35 26 28 31 32 29 27 29 24 26 25 23 25 24 21 24 25 23 25 26 23 22 22 19 18 25 24 22 20 18 16 14 14 16 18 20 25 27
31 31 38 41 42 35 33 34 33 30 28 29 32 33 32 27 24 25 24 23 22 24 25 27 27 28 25 23 20 21 19 24 17 13 16 17 17 19 22 25 27 29 28 30
34 34 39 42 40 38 36 34 31 33 33 29 31 33 30 26 28 28 26 23 24 26 28 30 30 29 26 23 23 22 20 18 18 18 19 20 22 25 27 29 30 29 30 31
38 41 42 33 41 36 36 34 36 35 38 37 33 32 29 24 27 28 27 25 23 25 27 28 29 28 28 28 28 29 24 21 22 22 24 26 29 32 32 30 33 34 35 36
32 43 48 46 27 35 38 36 37 35 37 36 35 34 32 27 29 28 26 27 26 28 29 30 30 33 29 31 26 24 28 27 28 29 31 32 33 33 32 34 37 38 39 40
47 45 43 44 41 42 43 41 39 36 39 38 37 37 35 31 31 30 28 26 28 29 31 34 33 26 25 30 31 30 31 32 32 33 33 35 34 34 35 36 39 40 40 39
47 45 44 46 41 40 40 44 44 40 40 40 39 39 39 36 34 32 31 31 31 32 33 33 32 32 33 36 37 36 36 35 35 36 37 37 37 37 39 41 42 42 40 39
48 47 48 48 48 46 39 45 45 41 40 41 41 41 42 42 39 37 35 33 33 34 35 36 36 37 37 37 36 34 33 33 35 37 38 39 40 42 44 44 41 43 41 40
47 45 46 46 47 48 48 50 45 42 40 42 42 42 43 42 41 40 38 37 36 35 35 35 36 35 34 34 34 35 36 36 39 41 41 42 44 44 45 45 45 43 39 39
44 43 46 49 52 51 49 49 47 47 41 39 42 44 45 43 44 43 41 39 38 39 37 37 37 36 37 38 38 37 39 38 40 41 44 44 44 45 45 45 44 41 41 41
39 42 43 45 46 45 50 46 46 43 39 27 43 49 49 45 43 43 42 41 42 41 40 41 39 40 39 38 38 39 38 41 44 43 42 44 44 45 43 41 41 38 33 33
34 35 36 39 41 43 47 43 46 42 37 24 35 23 28 37 40 40 35 40 43 41 39 35 34 38 36 36 38 39 42 44 45 44 43 43 42 40 39 38 34 33 33 29
31 32 33 36 37 38 38 41 37 36 36 44 46 49 37 21 24 35 39 37 28 28 39 54 48 40 34 33 38 42 41 41 39 38 37 37 38 37 34 34 34 34 36 38
26 28 32 33 34 36 40 38 41 35 35 37 34 37 42 45 38 31 28 30 41 38 41 41 38 29 30 33 37 36 35 35 35 35 35 35 33 33 32 33 35 36 39 36
31 31 32 31 32 33 35 37 42 37 39 45 23 20 21 23 31 29 25 24 27 27 27 24 22 25 27 27 27 27 31 32 32 32 33 33 33 32 32 34 36 37 39 41
23 25 26 25 26 27 26 28 38 37 31 39 50 34 18 24 25 22 25 24 26 27 28 27 25 23 22 24 25 28 29 30 32 31 31 29 30 35 37 41 42 42 42 43
15 14 18 20 20 19 29 19 33 40 43 41 37 25 27 31 27 26 24 26 27 27 27 26 26 25 25 29 30 26 27 30 29 28 30 33 37 39 40 37 38 40 43 45
8 10 13 14 13 15 17 13 20 22 15 31 42 38 34 31 25 22 23 22 21 21 21 21 20 24 23 22 24 28 30 29 30 32 32 30 31 34 38 39 41 43 44 45
0 0 2 7 8 10 9 11 11 11 12 15 18 19 18 18 20 21 19 13 15 15 12 14 15 18 22 25 27 27 30 33 32 29 29 31 33 36 38 40 40 39 39 40
4 5 7 5 5 7 5 6 8 9 13 17 17 16 17 19 15 18 22 22 18 20 20 19 19 19 20 21 19 18 18 23 27 30 31 33 34 33 34 35 36 37 39 39

GFSNGP_500_spd_027.txt.gz
Wind_Speed
27 26 30 27 19 11 12 16 21 18 25 27 30 33 27 28 27 22 25 12 19 18 19 15 16 19 14 10 10 9 8 7 7 9 9 11 12 9 11 11 11 10 10 10
28 28 26 27 30 20 20 22 26 25 22 25 27 29 32 37 35 33 19 14 16 18 16 14 15 19 20 16 14 11 10 10 12 12 11 10 11 10 11 11 13 13 11 9
36 29 29 32 22 25 26 26 28 29 28 31 37 32 30 36 31 14 13 14 14 15 16 13 13 13 15 16 15 16 9 11 11 14 12 11 12 13 11 11 13 13 13 13
29 29 34 26 22 24 26 32 35 26 29 28 32 38 37 32 32 20 8 7 15 18 16 14 13 14 16 16 18 20 10 11 14 14 15 13 12 13 14 13 13 14 13 13
32 35 34 29 28 30 35 36 39 32 22 25 32 40 38 39 2 3 6 10 16 17 15 17 17 13 12 15 15 18 15 17 16 18 17 15 13 13 14 15 17 17 16 16
33 40 37 26 33 35 34 36 38 25 13 27 32 33 38 30 8 13 8 13 13 17 22 19 18 12 16 14 16 17 18 20 19 22 22 20 16 16 15 13 14 13 13 12
34 40 37 30 29 37 39 37 42 39 5 18 20 24 29 26 19 13 13 14 15 16 16 19 20 12 16 19 19 17 17 17 18 22 23 20 18 15 13 11 11 13 16 20
41 41 40 37 35 37 37 36 42 35 26 17 20 20 18 20 21 17 17 20 19 15 16 17 18 19 24 23 22 20 19 16 17 23 14 13 14 13 14 15 17 20 23 25
38 42 43 41 38 38 37 33 32 35 33 25 27 25 23 22 21 19 20 23 25 23 18 17 21 23 26 26 26 22 21 18 19 20 15 14 15 17 19 21 24 26 26 25
36 39 40 34 31 37 39 39 38 34 32 25 28 27 25 25 24 19 19 23 25 25 23 19 23 25 27 27 24 23 23 24 23 22 22 20 21 22 24 26 28 28 27 30
43 44 41 35 34 23 44 36 36 34 31 25 28 32 33 31 28 25 23 24 26 26 23 23 25 25 26 27 27 28 27 25 28 28 26 26 27 28 30 31 32 31 32 33
45 44 44 43 43 37 25 35 31 30 31 29 28 32 34 33 32 31 26 26 25 25 26 28 28 28 30 29 28 34 30 25 24 24 29 31 31 31 32 33 34 33 34 36
41 41 43 41 38 32 29 27 32 34 35 33 30 32 34 34 33 32 30 29 29 28 28 30 32 32 32 31 28 24 27 29 30 30 32 32 32 33 35 35 35 35 37 40
42 43 43 43 37 41 39 37 34 32 33 36 35 34 35 36 36 34 33 31 31 31 31 32 34 34 34 33 31 32 34 36 36 34 33 32 32 33 35 39 37 38 41 43
48 48 49 50 49 45 43 43 41 39 39 39 41 39 36 37 37 38 38 36 35 34 34 35 36 37 37 36 36 35 34 34 33 32 32 33 34 37 35 37 40 43 44 42
48 48 47 49 50 46 43 44 44 42 35 26 25 32 37 37 38 39 38 39 38 37 37 38 39 40 40 38 38 36 34 34 34 34 34 36 34 35 39 41 42 42 42 42
49 46 46 46 47 48 48 48 49 45 44 43 45 44 41 40 42 45 42 41 41 41 39 38 40 40 39 39 39 39 38 38 38 36 36 36 38 40 40 41 39 39 38 37
46 47 45 47 48 51 50 48 50 49 46 45 43 42 39 36 31 35 39 45 39 39 40 40 40 41 41 39 42 41 40 40 36 38 37 38 41 41 40 41 40 37 36 36
39 41 43 43 44 46 46 45 47 50 47 45 45 42 36 41 33 22 18 22 30 38 39 40 41 42 40 40 52 39 40 45 42 36 39 40 40 39 38 37 36 35 34 31
31 33 34 34 34 36 39 40 38 41 42 40 37 40 36 40 42 30 32 31 37 40 37 31 29 32 36 38 37 28 29 29 28 31 38 36 35 35 33 32 32 33 33 33
29 30 29 30 31 32 34 33 35 36 39 34 33 32 30 31 26 37 42 31 22 21 21 25 30 41 38 34 39 27 22 27 29 29 30 31 31 30 31 32 31 33 33 35
23 25 28 30 32 32 33 35 35 33 35 36 36 32 39 27 23 24 28 34 25 18 13 15 19 21 21 21 22 24 24 25 25 27 30 29 29 30 32 31 32 35 37 39
25 28 28 28 30 34 38 36 35 34 35 33 34 33 35 40 45 27 14 13 9 11 15 20 23 23 22 23 25 23 21 22 26 28 29 30 29 30 33 36 39 41 37 36
13 14 19 19 20 24 27 28 29 28 28 28 26 34 31 42 37 17 6 13 17 18 20 21 20 22 20 18 19 20 24 26 26 28 31 30 32 34 37 37 34 35 38 40
10 8 11 18 21 20 19 22 25 28 26 15 23 32 19 23 32 23 15 16 19 12 11 17 17 15 17 18 21 22 24 25 27 28 28 27 26 28 32 34 36 36 36 36
4 3 5 6 3 2 1 5 7 13 13 12 19 17 11 18 20 14 19 23 18 7 12 22 15 14 15 18 21 24 24 23 22 20 23 28 30 32 32 31 31 32 35 37
3 2 5 3 5 8 7 4 4 6 6 8 8 10 12 11 16 15 14 13 12 17 21 19 19 18 16 14 14 13 16 21 22 23 26 27 27 28 31 33 36 38 39 40

GFSNGP_500_spd_030.txt.gz
Wind_Speed
30 33 34 33 30 29 26 23 27 21 22 23 25 26 25 33 33 33 20 14 8 6 7 7 11 14 16 10 11 7 6 6 8 7 8 7 7 8 6 8 8 9 8 8
32 30 26 26 27 25 27 29 31 27 23 27 29 30 30 32 29 32 30 31 7 8 10 9 8 14 13 10 8 10 4 7 7 6 9 12 9 8 9 8 7 10 10 9
30 29 30 31 19 25 35 33 31 32 27 28 27 27 30 32 31 32 28 29 22 9 11 11 13 14 11 11 6 7 3 1 0 5 9 11 13 12 11 10 9 9 10 9
32 33 38 31 29 32 34 33 32 35 35 35 36 34 28 31 31 29 30 20 18 17 13 16 14 19 17 10 11 7 5 6 4 7 10 11 11 11 11 12 11 11 11 10
36 36 37 32 33 39 38 38 36 37 37 39 39 35 32 21 21 23 14 12 18 16 18 16 19 24 24 17 11 9 11 13 13 13 12 12 12 12 13 12 11 10 7 6
37 36 35 27 31 38 41 38 35 35 37 42 39 39 14 11 22 16 12 13 17 14 14 18 20 30 27 27 3 8 12 15 16 16 15 21 16 15 13 10 8 7 5 8
40 40 37 30 37 36 36 37 35 35 35 36 37 24 11 4 2 6 5 10 13 13 12 15 19 25 20 8 9 13 15 16 16 17 19 16 11 12 13 12 12 13 17 20
42 42 40 34 40 38 37 40 38 37 36 35 33 14 12 5 9 12 11 11 12 12 12 13 15 16 17 18 19 17 19 20 19 17 20 18 15 13 14 15 17 20 22 24
43 42 43 38 39 36 39 38 37 38 41 35 22 10 13 9 11 12 12 13 15 16 16 14 14 17 18 20 20 20 19 20 22 21 22 23 21 21 20 21 22 23 24 26
40 43 40 37 34 35 34 34 32 33 30 27 29 19 18 14 16 16 17 17 17 23 21 19 19 20 22 21 20 20 21 23 22 24 25 28 28 28 25 26 28 28 28 30
41 42 40 39 36 34 31 33 37 25 25 22 19 20 16 20 24 22 23 24 23 24 26 24 22 24 25 24 24 23 23 26 28 28 27 27 26 31 32 33 33 33 33 33
43 42 39 39 38 35 35 34 30 16 20 26 20 21 21 23 26 26 25 25 25 25 28 28 27 27 27 27 29 28 28 29 28 24 27 28 29 30 33 35 35 35 34 34
42 42 43 41 39 36 32 31 33 29 32 27 28 28 25 25 27 27 27 27 26 26 28 29 29 29 29 30 30 31 31 31 31 32 32 33 32 32 31 31 32 33 35 37
40 41 40 38 40 35 36 32 28 26 27 28 25 27 27 27 30 29 30 30 28 27 28 29 29 30 32 33 33 34 35 35 34 34 35 34 33 32 31 32 34 36 35 35
40 40 40 39 40 39 39 37 36 36 37 33 33 35 35 34 35 34 33 33 31 30 30 31 32 32 33 34 35 36 37 36 35 33 33 33 33 34 36 38 37 35 37 39
42 43 46 45 43 45 47 44 44 44 43 40 38 35 34 33 28 25 29 32 32 34 35 35 35 35 34 35 37 37 37 37 35 33 34 33 34 36 36 39 38 40 40 40
46 45 43 45 50 51 50 49 49 48 45 43 41 39 38 37 37 41 41 39 38 37 38 39 39 39 36 35 37 38 37 36 34 36 37 37 38 35 36 38 40 41 41 40
43 46 49 48 49 50 49 49 49 49 48 46 45 44 43 42 41 42 42 41 38 36 36 37 36 38 37 36 37 38 37 35 34 36 42 44 39 39 38 38 37 38 37 37
42 45 46 46 47 49 49 47 47 47 47 44 44 45 44 42 42 42 40 35 30 26 26 29 29 32 36 33 28 26 23 29 31 31 39 36 32 31 33 33 34 33 33 31
34 36 36 38 41 42 45 45 43 44 46 43 41 41 40 37 34 35 33 38 40 40 35 30 31 33 33 34 27 27 33 33 33 29 27 29 32 32 31 33 35 34 33 31
28 30 32 34 36 37 38 39 38 38 38 37 35 32 31 33 35 36 36 36 38 42 35 19 18 25 24 22 25 27 31 33 28 26 33 31 29 29 28 32 32 30 30 33
27 28 29 30 32 33 34 35 36 36 36 35 31 32 30 30 31 31 31 27 32 34 28 24 27 20 14 15 19 24 27 26 26 28 29 27 28 31 33 33 31 32 33 34
22 24 26 29 31 30 32 33 36 39 38 36 31 29 23 32 33 28 32 27 24 18 21 11 9 15 18 21 24 27 26 26 27 27 27 29 30 29 32 31 30 29 30 32
26 28 27 24 26 27 27 27 29 32 35 36 35 34 33 30 25 28 33 30 19 18 8 6 11 14 17 21 26 25 22 22 24 27 24 25 26 27 26 25 28 31 32 32
15 14 16 14 15 20 24 25 27 27 28 31 32 32 31 31 27 25 30 26 14 7 10 13 13 14 13 12 15 18 22 24 25 23 23 21 20 25 27 29 30 30 30 32
8 8 7 7 6 6 5 4 9 15 20 24 24 31 29 28 31 28 26 28 27 18 11 15 17 17 18 15 18 20 22 22 19 18 22 24 24 25 27 27 29 30 32 33
4 5 4 2 4 3 3 1 1 4 4 6 11 14 30 20 16 17 15 11 17 15 20 21 22 22 20 20 18 17 15 16 21 23 24 24 26 27 27 28 31 33 35 36

GFSNGP_500_spd_033.txt.gz
Wind_Speed
31 32 29 25 25 24 24 26 28 28 22 24 24 18 24 24 27 27 29 29 35 26 30 21 10 3 5 9 6 7 7 6 4 1 2 2 4 7 7 6 6 6 6 7
35 36 32 30 30 29 31 34 36 32 28 24 29 29 29 32 30 33 32 28 22 28 12 32 22 10 6 7 6 7 5 6 8 1 2 6 4 6 8 8 9 8 8 7
29 30 29 30 30 28 31 31 32 32 29 28 27 30 33 34 34 33 33 24 21 20 29 24 21 15 12 9 8 9 10 11 12 3 4 8 8 6 8 8 7 10 12 10
35 35 33 32 29 29 31 34 35 31 27 27 28 32 36 36 39 37 31 19 13 6 18 14 9 9 7 11 16 15 17 8 6 4 7 10 10 10 10 10 9 9 12 12
40 41 36 35 34 36 39 40 38 39 34 30 29 30 30 35 42 18 17 16 13 10 16 9 12 7 12 20 21 20 12 3 7 7 11 13 15 8 10 11 10 7 6 5
40 40 38 38 39 36 40 38 34 35 34 30 29 28 31 36 45 25 19 13 11 9 12 14 13 12 15 15 23 7 6 9 10 10 12 11 12 9 7 10 11 8 7 10
42 45 45 39 35 37 38 36 32 33 32 32 30 27 26 31 24 14 12 7 9 10 12 12 12 11 11 13 13 10 7 6 12 10 12 15 13 13 12 12 13 14 15 15
49 45 43 39 39 39 39 38 34 33 33 35 34 31 26 24 23 26 12 9 11 11 15 16 14 11 11 12 11 12 12 10 13 14 14 17 21 19 18 17 17 18 20 21
45 43 43 41 38 37 37 36 33 32 32 35 34 32 34 28 25 20 16 16 15 15 15 13 15 14 13 14 15 16 13 14 14 15 16 16 20 23 27 27 24 23 24 26
43 44 44 40 36 34 33 31 31 27 28 28 28 32 38 19 19 16 18 17 14 12 15 15 17 19 18 17 18 17 17 16 17 20 20 21 25 26 25 28 31 30 31 31
40 41 40 39 34 31 29 27 25 25 25 26 31 28 20 11 20 24 21 17 17 17 18 20 22 23 22 23 21 22 22 21 21 22 23 25 26 26 27 28 30 31 32 33
40 38 36 34 31 27 26 25 25 25 27 27 30 16 18 18 15 19 18 19 20 19 21 22 24 26 27 28 27 26 27 27 26 26 25 26 27 29 30 32 33 33 33 33
37 37 37 34 33 32 29 27 29 30 29 29 28 26 24 18 17 18 20 22 24 24 23 25 26 28 29 32 31 29 29 30 29 30 29 30 31 32 34 34 32 31 31 33
37 37 37 36 37 35 32 31 32 31 29 24 26 24 18 18 19 22 22 24 27 28 29 29 30 31 32 32 33 33 34 32 32 32 34 33 33 33 33 33 33 33 35 37
36 39 40 40 40 39 38 35 31 32 31 28 28 27 25 26 27 28 29 30 30 33 33 32 32 33 33 33 34 36 35 34 35 37 36 35 34 33 33 35 35 37 39 38
40 41 42 43 42 42 42 40 38 34 36 37 35 35 34 34 34 33 33 33 31 32 29 29 31 32 32 33 35 35 35 35 35 35 35 34 35 35 35 36 38 39 38 38
43 42 41 42 43 44 43 43 43 44 42 43 41 40 38 37 37 35 35 34 33 33 36 36 34 34 35 39 40 38 37 32 33 34 33 33 32 34 36 38 42 42 40 41
46 45 43 44 46 47 48 47 46 46 46 44 43 43 43 42 41 40 40 40 38 40 40 38 36 35 31 26 28 34 35 32 30 30 31 32 34 35 39 37 39 37 37 38
39 41 43 45 47 46 45 46 46 44 45 45 44 44 42 42 44 43 40 40 39 39 39 38 35 29 27 27 30 30 32 32 27 29 35 33 35 34 34 33 31 35 36 33
37 41 42 44 44 43 43 44 43 42 40 40 40 41 39 40 39 38 37 37 36 35 34 32 33 31 32 34 31 33 33 31 30 33 32 33 33 35 34 32 33 31 32 33
25 26 29 34 36 37 38 40 39 37 35 34 35 33 32 32 33 33 31 34 36 36 35 33 38 38 38 31 27 27 29 31 31 30 30 30 29 29 29 29 29 32 35 34
27 28 30 31 32 33 35 34 34 34 35 34 34 32 30 30 31 31 33 32 32 33 34 34 36 33 27 27 30 28 25 26 28 30 30 28 28 27 28 32 35 34 33 35
27 27 28 28 26 25 25 26 28 32 33 34 33 31 30 29 28 29 33 32 32 28 28 31 31 23 29 32 24 24 27 28 29 28 27 26 28 30 32 31 30 32 32 31
28 29 27 26 27 28 28 26 27 30 33 35 35 33 34 34 31 28 23 26 35 29 26 25 23 19 19 21 20 21 22 22 21 21 23 27 30 30 30 29 27 28 31 31
21 19 18 20 19 19 21 23 25 26 29 35 38 35 34 34 35 32 31 26 23 24 28 17 12 14 19 18 18 17 16 17 20 23 25 28 27 25 25 27 28 30 31 33
8 8 9 10 11 12 12 13 14 16 17 17 20 27 28 29 31 32 27 25 22 28 24 25 20 19 19 14 17 20 20 20 22 26 25 21 24 26 27 28 31 32 33 34
7 7 8 9 7 7 8 11 14 14 14 12 11 16 23 22 28 29 24 22 31 30 28 28 24 24 13 19 24 25 22 21 19 20 23 25 27 28 29 31 33 35 36 37

GFSNGP_500_spd_036.txt.gz
Wind_Speed
32 27 26 25 25 26 25 26 25 21 21 22 21 22 21 23 28 30 33 30 31 24 22 22 12 19 18 7 4 3 5 4 4 3 5 7 4 3 4 6 7 7 7 6
31 34 31 28 28 26 27 26 28 26 27 29 24 21 20 24 27 32 33 33 35 33 26 26 25 21 19 14 11 5 5 9 8 5 7 7 4 4 5 4 8 10 9 9
24 29 32 34 33 32 30 28 27 31 30 25 21 21 22 25 25 26 32 37 43 29 26 26 31 37 33 21 13 7 5 9 8 10 13 12 9 8 3 3 5 7 8 10
26 26 28 30 30 30 29 30 32 32 31 29 26 24 26 29 24 24 27 34 27 27 26 27 27 12 25 14 9 10 9 10 14 15 8 9 6 9 2 4 6 8 9 7
31 30 31 30 30 31 32 32 33 34 35 34 33 34 32 28 26 26 27 27 25 27 24 24 10 7 7 4 7 17 15 6 2 3 6 12 10 8 4 5 7 8 7 5
37 34 35 34 34 37 37 36 37 39 37 30 29 29 26 26 28 29 27 29 16 19 20 13 9 6 6 5 2 11 11 6 1 3 5 8 10 8 8 7 7 10 11 13
41 40 39 38 36 37 38 37 35 33 34 31 28 25 23 27 29 30 30 29 17 13 13 13 11 9 9 8 1 2 2 3 4 4 5 8 14 12 9 11 11 12 14 17
46 47 41 34 39 39 40 42 38 36 36 33 30 26 24 27 29 30 28 27 22 18 17 16 13 8 6 4 6 4 5 6 7 11 13 12 15 11 12 14 15 17 19 20
44 37 42 42 42 41 40 37 37 35 32 29 25 25 28 28 28 34 35 27 24 20 23 20 12 11 10 9 8 8 9 14 15 18 14 16 17 15 18 20 20 18 20 21
47 46 46 46 40 38 38 38 33 30 24 20 18 19 23 24 27 31 36 27 26 22 24 21 17 13 11 11 11 11 12 14 16 15 17 20 19 20 22 20 21 21 23 24
41 41 40 38 37 37 34 31 27 23 19 18 18 20 21 22 21 21 31 23 23 24 24 26 24 20 17 16 14 14 15 18 21 21 22 23 24 24 24 24 24 25 27 28
42 38 38 36 35 34 31 27 25 24 23 21 23 23 25 20 22 20 22 23 24 28 26 24 22 22 22 20 20 20 21 22 24 25 26 27 29 28 28 28 28 31 31 31
40 39 39 37 36 33 29 27 26 25 23 24 25 22 19 20 21 29 24 26 27 28 24 23 23 23 24 24 24 25 26 27 28 28 29 30 32 32 32 31 31 32 32 32
43 44 43 40 35 31 29 26 24 22 25 24 26 23 22 23 18 19 25 27 27 27 28 27 27 27 26 27 27 29 30 31 30 31 33 35 36 36 36 36 37 35 34 34
34 35 36 38 38 36 34 32 31 31 29 29 28 28 28 25 23 24 25 27 27 27 28 29 30 32 32 30 29 29 30 31 31 33 35 36 36 37 37 37 36 36 37 38
36 37 36 37 37 39 38 36 35 35 34 32 32 31 34 34 33 33 33 31 30 29 30 30 32 30 30 27 29 31 31 33 35 36 38 38 39 39 37 37 38 37 38 38
37 37 39 38 38 39 39 40 40 40 40 38 38 38 37 40 39 38 38 36 34 34 33 32 32 30 31 34 35 33 34 36 36 36 36 38 38 37 37 38 39 37 38 42
39 40 41 40 39 41 43 44 42 41 41 42 42 42 42 42 42 43 42 40 38 38 39 38 37 37 39 40 39 38 36 32 30 31 33 33 31 32 34 33 37 37 37 38
37 39 40 42 42 42 43 42 41 41 42 43 44 43 43 44 44 44 44 45 43 42 42 41 40 40 41 40 39 38 34 31 31 34 36 35 35 33 35 38 41 40 39 36
36 37 37 38 40 41 42 42 41 41 42 40 39 39 39 39 40 41 43 44 44 44 42 43 40 38 37 35 37 36 35 34 35 34 34 32 33 36 39 41 38 34 32 32
29 27 29 30 30 32 33 35 35 35 37 36 34 33 33 34 35 36 38 39 39 39 38 36 37 37 36 33 33 37 35 35 34 32 31 33 35 34 34 33 33 32 31 30
23 25 28 30 30 30 32 31 30 30 31 32 31 31 31 30 32 33 35 34 34 35 34 34 33 36 38 36 37 40 35 32 33 31 32 31 33 33 33 32 30 29 29 31
25 28 30 32 34 34 32 30 28 26 25 28 31 31 31 31 30 30 32 33 34 33 34 33 31 31 31 33 35 36 30 34 35 28 28 33 34 32 30 27 28 29 30 27
25 26 28 30 31 30 28 25 26 28 27 27 29 32 34 35 35 35 34 33 32 31 32 30 27 27 24 28 29 33 33 29 27 29 31 32 28 25 26 28 28 26 27 29
25 24 23 23 22 23 23 24 23 22 25 25 25 26 28 32 35 36 33 34 34 28 20 21 28 30 32 27 22 23 25 27 26 26 27 25 25 27 28 25 25 28 30 32
15 15 14 11 11 11 12 14 14 14 16 19 24 27 28 26 26 29 31 30 32 32 27 28 21 20 19 20 21 26 25 25 23 26 27 27 26 23 24 27 29 30 32 34
12 11 9 10 11 10 10 11 13 15 16 17 21 26 21 16 16 21 24 28 27 24 32 28 26 21 22 23 27 27 24 22 26 29 25 20 22 25 27 28 30 32 34 36

GFSNGP_500_spd_042.txt.gz
Wind_Speed
25 26 26 21 21 22 24 20 17 16 13 20 20 22 22 22 20 22 22 23 29 30 31 32 32 21 17 11 11 7 7 6 4 5 6 5 4 4 7 9 10 12 12 10
27 26 28 28 26 26 30 30 26 22 21 23 19 21 22 20 19 22 26 29 32 30 28 29 26 20 21 18 18 14 11 9 10 8 7 8 9 7 4 8 11 12 13 11
28 26 34 34 31 28 27 26 21 19 23 22 20 24 25 23 23 26 30 30 29 24 26 26 24 21 24 20 19 16 12 13 10 9 10 11 13 15 11 9 11 11 10 9
23 25 32 32 29 30 27 26 24 25 26 14 21 21 22 23 25 27 27 23 22 23 24 25 22 20 21 21 25 23 23 21 15 11 12 11 13 13 12 11 12 9 5 6
30 25 25 27 36 34 29 29 27 23 21 22 24 25 25 25 21 20 22 20 22 26 25 22 21 19 22 22 10 14 17 15 18 18 15 13 13 7 6 10 13 6 7 8
31 27 25 27 23 22 24 26 23 23 23 24 25 28 26 26 25 21 22 22 22 27 26 21 19 18 20 19 8 9 14 15 22 21 19 17 14 9 7 6 7 11 11 12
31 29 32 26 25 27 24 24 24 26 27 28 28 28 30 28 26 24 24 22 24 26 27 22 21 17 17 15 12 21 20 11 8 21 20 12 10 8 11 11 13 13 15 16
32 33 29 30 27 27 30 31 31 31 32 34 33 31 31 30 29 28 25 22 24 25 26 23 23 20 15 12 11 5 8 6 4 5 8 10 11 13 16 15 14 15 15 16
36 33 36 32 31 31 32 33 35 35 34 35 34 33 32 31 30 26 25 25 26 24 23 22 21 20 14 10 11 12 8 13 15 11 13 16 15 17 14 15 17 18 19 21
40 42 40 40 38 37 37 37 41 43 37 40 36 43 34 31 30 28 27 27 25 24 21 25 25 18 15 12 11 12 13 15 15 16 15 18 18 13 16 17 19 21 22 22
44 45 43 42 41 41 42 44 45 40 42 42 41 38 32 29 29 28 28 27 26 23 21 26 37 21 16 15 16 17 18 20 21 21 22 23 22 22 22 23 24 26 27 27
46 47 47 44 43 43 44 43 44 44 41 40 37 32 31 29 28 30 29 30 30 26 29 21 23 24 20 18 19 22 22 22 22 24 24 25 25 27 28 29 29 31 29 30
41 41 42 42 45 46 45 40 38 34 32 32 30 30 29 30 31 33 33 33 30 26 26 23 24 25 21 20 21 24 24 25 25 25 26 28 29 31 31 32 32 33 32 33
37 36 37 37 37 35 34 36 34 33 33 31 31 30 29 34 36 38 36 33 31 28 27 25 26 26 26 25 25 27 28 28 29 30 31 32 34 34 33 33 33 33 34 35
38 38 37 36 37 37 34 31 31 31 32 33 34 33 32 32 34 35 37 35 35 34 31 29 29 28 28 28 29 31 32 33 33 34 35 35 35 34 34 35 36 36 39 41
26 27 28 31 33 35 38 39 38 33 34 38 26 31 35 33 35 37 36 35 35 34 34 36 35 31 31 34 36 35 34 34 34 34 36 37 37 35 35 37 38 40 42 42
29 29 29 29 29 30 31 31 32 38 38 36 38 39 39 39 40 40 40 40 40 40 39 40 39 41 41 39 41 41 40 40 39 39 39 39 41 44 44 42 41 42 42 37
30 30 30 31 33 33 33 34 35 35 37 38 39 41 42 42 42 43 43 43 44 45 45 45 46 45 46 46 45 45 45 45 46 46 45 45 46 46 46 44 41 41 36 35
30 30 30 31 32 32 33 33 36 37 38 39 41 42 43 44 44 45 45 46 47 48 49 49 49 49 49 50 49 49 48 47 47 47 47 46 46 44 41 41 40 34 32 34
27 28 29 30 32 33 34 35 37 38 40 41 42 42 44 45 46 47 47 47 47 48 49 48 50 52 51 51 51 50 48 47 46 45 45 43 42 37 37 36 36 35 34 35
25 25 26 28 29 31 34 35 36 37 38 39 40 41 43 43 45 46 46 46 47 49 49 48 48 49 49 49 48 47 44 44 41 40 38 32 33 34 39 41 38 36 34 34
22 23 24 26 27 27 28 29 30 30 31 32 33 34 36 37 37 40 41 41 44 47 47 46 46 48 45 45 44 40 38 38 36 34 33 34 39 36 37 36 32 32 34 34
14 14 15 16 18 20 23 24 26 29 31 34 35 36 36 35 35 36 36 37 37 38 40 41 44 46 41 41 39 37 35 33 33 31 30 30 33 38 38 37 36 37 34 26
16 17 18 20 21 23 25 27 29 30 31 33 33 32 30 30 29 31 33 35 36 39 39 38 41 42 41 39 37 35 34 34 32 31 32 30 35 37 37 41 35 27 22 23
18 19 20 23 24 25 26 26 25 24 24 23 21 22 25 28 29 31 32 35 37 39 40 39 40 43 41 37 34 32 30 31 34 32 28 33 35 34 28 21 22 22 25 26
20 20 21 21 21 19 19 19 19 18 17 16 17 18 20 23 25 28 32 30 32 36 40 44 39 32 35 36 35 32 31 37 35 35 32 24 26 24 24 22 23 27 27 27
14 13 13 13 14 15 16 16 16 17 17 18 20 20 23 22 24 24 25 24 23 22 23 26 31 31 30 32 32 26 33 22 27 25 21 19 18 21 23 26 28 25 25 28

GFSNGP_500_spd_045.txt.gz
Wind_Speed
27 24 12 17 19 19 22 21 18 27 10 35 18 14 19 21 21 20 18 20 24 27 27 25 28 27 20 20 15 15 14 12 10 10 10 9 8 6 5 7 5 6 8 8
30 27 20 22 19 20 20 21 23 20 28 23 28 17 18 20 22 21 21 24 25 27 25 23 27 28 22 20 17 17 14 18 17 14 14 12 10 9 7 7 8 8 8 9
31 24 24 28 22 20 18 20 20 20 30 28 23 27 20 21 22 21 24 24 25 23 21 21 27 27 25 22 21 17 21 22 20 17 14 14 13 12 12 13 11 10 9 9
26 22 28 27 24 23 23 20 20 32 28 21 27 24 19 22 22 23 23 24 23 22 20 22 25 25 25 25 27 24 28 23 20 18 15 14 13 13 14 14 14 12 11 9
25 26 22 33 29 26 23 24 31 37 32 33 26 22 23 23 25 27 26 25 24 23 22 23 25 25 25 25 26 29 18 15 24 19 17 17 16 17 16 11 12 14 11 10
24 27 29 29 26 30 29 29 30 25 27 31 27 25 32 26 24 26 26 25 25 25 25 25 25 26 26 25 25 26 14 14 18 16 20 22 17 17 14 9 9 14 15 16
28 26 29 36 42 32 26 32 39 33 28 26 26 29 31 30 29 28 29 27 27 27 26 24 25 27 29 25 22 18 10 17 16 17 18 22 21 23 16 13 13 13 16 18
27 33 40 48 25 24 30 33 35 33 21 26 28 31 32 33 31 31 30 29 29 28 26 26 25 27 28 25 20 14 11 13 17 10 5 21 15 12 13 15 16 16 18 18
37 45 30 51 24 31 27 26 25 26 29 31 33 34 36 37 38 37 34 30 31 30 29 28 27 25 22 24 19 15 13 10 12 12 8 8 11 14 16 18 18 18 20 20
43 48 41 33 28 22 28 30 31 32 32 34 36 38 39 39 37 35 33 31 30 29 29 27 27 28 27 35 25 15 14 15 9 6 11 15 16 15 18 22 18 19 22 24
47 48 35 40 32 34 36 35 36 37 37 37 41 42 40 41 40 36 32 30 28 28 29 27 27 31 32 33 30 19 17 16 15 14 16 18 19 20 22 22 23 26 27 27
51 52 49 48 41 41 41 40 41 42 42 43 44 42 40 37 36 34 32 30 29 30 31 30 30 31 32 29 28 19 19 20 21 20 21 22 24 25 27 28 28 30 30 31
54 50 51 47 45 45 45 45 45 47 45 45 45 45 37 34 33 33 32 31 31 31 33 33 30 27 28 29 29 25 22 22 22 23 24 25 26 28 29 31 33 34 34 35
43 43 44 44 47 50 50 49 49 50 50 50 44 39 34 33 32 32 33 33 33 32 34 33 32 31 29 28 30 29 29 30 29 26 28 29 30 31 31 33 34 35 35 36
41 40 40 37 40 44 45 46 45 42 39 36 39 38 37 35 35 34 33 31 31 31 32 34 35 35 35 32 30 31 32 30 30 31 32 33 34 35 36 36 37 36 37 36
41 42 42 42 34 31 42 41 42 44 39 37 32 35 36 35 36 43 34 31 30 33 34 35 37 36 34 35 35 35 35 34 35 35 36 37 38 37 37 36 37 38 39 40
30 31 32 35 44 48 40 42 43 42 38 36 38 46 40 36 35 33 38 38 33 35 38 38 39 39 38 39 40 40 39 43 43 46 44 43 43 42 42 41 42 42 45 45
28 29 29 28 29 30 34 33 34 34 33 32 33 35 35 34 35 37 38 38 38 40 40 43 42 43 44 44 43 44 45 46 46 47 46 44 45 44 45 45 45 45 45 43
28 29 29 30 29 30 31 33 33 34 35 36 36 36 36 37 39 40 41 42 44 45 46 47 45 47 48 48 50 50 49 49 49 50 49 47 45 46 45 44 43 43 43 37
26 27 28 28 29 29 30 32 33 34 36 36 37 38 39 40 41 43 44 45 46 47 48 49 48 47 48 48 49 50 50 49 48 47 46 44 44 41 39 37 39 39 39 36
24 24 26 27 28 29 30 31 32 33 35 36 37 38 39 41 43 44 45 46 45 48 48 48 48 49 48 47 48 49 48 47 46 43 37 33 31 32 43 41 37 41 41 37
23 24 25 26 27 29 30 31 32 33 35 36 37 39 40 41 42 43 44 44 44 45 46 44 45 46 45 46 44 44 42 44 40 38 33 38 42 40 42 37 35 39 40 41
20 22 24 25 26 27 29 30 30 31 32 33 34 36 37 39 40 41 41 43 43 44 43 43 43 40 39 39 40 39 41 42 39 34 33 33 31 34 36 33 38 41 40 41
16 16 18 19 20 21 21 22 24 25 27 29 31 33 35 37 39 39 37 37 38 37 37 39 39 41 43 45 44 43 41 39 38 34 33 33 35 34 30 36 43 51 46 46
15 16 16 17 18 19 21 23 24 26 27 27 28 28 29 28 27 28 29 31 33 34 36 39 42 45 47 46 45 43 40 38 37 35 34 37 37 38 37 38 43 35 35 31
18 18 19 20 21 21 21 23 22 23 24 24 23 23 23 23 24 26 28 28 31 32 33 36 41 43 44 42 39 37 37 39 37 37 35 42 39 43 43 42 34 28 32 33
19 19 19 19 18 17 17 16 17 18 18 19 21 23 24 26 26 26 24 24 22 24 27 29 27 25 27 28 30 34 34 32 32 32 36 40 44 36 37 31 28 28 32 32

GFSNGP_500_spd_048.txt.gz
Wind_Speed
28 28 22 23 19 21 25 28 28 24 38 27 29 35 19 10 18 20 22 22 20 24 27 27 25 24 26 27 24 19 18 20 13 12 13 9 8 8 10 11 12 10 10 9
35 35 22 24 20 32 21 20 23 23 37 36 31 33 24 15 15 22 23 21 21 23 23 21 23 24 25 25 27 23 19 19 15 18 17 15 14 12 14 12 9 10 10 9
37 34 32 36 23 21 20 19 26 24 37 41 38 30 6 15 21 26 22 21 23 23 24 22 22 26 27 25 26 28 21 17 23 24 23 18 19 14 15 14 14 15 13 11
38 31 38 34 26 23 28 21 22 32 40 42 40 31 20 19 26 23 20 23 24 23 26 25 24 28 29 27 27 30 28 25 22 22 22 21 17 17 16 14 16 14 15 12
37 36 34 29 24 24 26 22 29 35 41 38 38 24 20 21 24 24 21 21 24 26 27 27 27 28 30 28 27 29 31 28 21 18 24 24 18 18 17 19 15 12 13 12
37 30 35 22 30 32 28 32 44 50 42 21 4 21 22 25 25 24 23 26 26 28 28 29 28 29 29 28 27 30 32 29 22 12 23 23 25 22 19 17 15 11 11 13
38 36 28 33 39 41 36 36 43 45 32 30 33 27 27 26 24 24 26 28 28 30 29 29 28 30 27 27 28 31 27 24 13 19 14 18 15 23 17 19 20 14 15 14
34 32 35 47 48 49 49 40 17 35 37 34 30 31 30 25 26 28 30 32 32 31 31 28 28 28 28 28 27 26 28 25 23 17 18 15 19 22 21 17 19 16 18 18
40 42 44 52 33 50 47 42 30 31 34 30 28 26 27 26 29 31 34 36 36 33 30 29 26 26 26 26 27 29 27 29 27 18 17 14 13 17 18 16 13 13 17 21
21 47 50 54 58 51 33 43 40 41 30 38 26 31 28 30 33 35 37 39 38 36 32 29 27 26 26 26 29 29 30 29 25 16 12 12 10 11 11 14 13 11 19 21
29 49 46 45 19 50 46 27 31 28 32 30 30 31 33 35 36 37 38 38 41 37 33 30 29 27 28 29 29 28 25 26 26 14 16 15 18 18 19 16 15 17 19 22
31 44 50 50 45 28 36 43 31 30 34 38 39 38 38 40 40 41 40 39 39 35 31 30 30 29 29 30 30 27 24 21 24 22 20 19 20 23 22 23 23 22 23 24
38 49 61 50 51 53 41 31 32 39 44 47 45 44 44 40 43 43 43 38 35 31 30 29 31 31 31 28 28 29 27 25 25 23 22 22 22 22 23 25 27 28 29 29
39 28 53 54 51 48 47 48 50 53 49 47 49 48 48 47 48 47 40 34 32 30 31 32 31 30 29 29 28 29 31 30 27 26 28 30 29 28 29 31 31 33 33 34
26 15 35 40 48 56 59 57 51 51 49 49 48 49 51 47 43 38 34 34 34 33 33 35 33 31 28 29 29 30 30 29 30 31 31 30 30 31 32 32 33 33 33 34
55 20 34 34 44 54 58 53 47 61 36 40 45 43 44 36 35 30 34 36 32 36 39 38 33 33 33 33 35 33 33 34 34 33 34 35 36 38 39 40 40 37 36 38
64 63 46 42 52 45 45 40 25 27 47 38 38 39 38 35 34 30 38 39 35 35 35 38 40 37 38 35 37 38 38 38 39 39 41 41 41 42 42 44 44 42 40 40
50 53 39 50 43 45 42 40 49 44 41 44 41 39 37 38 37 37 34 32 32 33 35 39 37 35 38 40 40 41 42 43 43 41 44 46 45 45 46 46 47 48 48 42
22 27 33 36 35 35 36 18 22 27 24 32 33 31 33 34 35 34 34 35 35 37 38 42 41 39 41 43 43 44 45 45 45 45 46 47 45 44 46 45 44 45 47 41
22 22 26 27 26 34 35 32 30 30 31 31 30 31 32 33 35 36 37 37 38 40 42 43 45 45 45 45 44 46 46 46 46 47 47 47 46 42 41 38 40 43 42 39
23 23 25 26 27 30 32 32 31 32 33 32 32 33 36 37 38 39 41 42 41 43 44 44 42 45 48 46 43 45 47 46 46 45 45 44 42 40 35 36 39 36 34 32
23 23 24 24 25 27 27 28 31 30 30 32 33 33 35 37 39 41 43 44 44 44 44 44 46 47 44 43 42 41 43 41 40 38 39 39 39 36 32 31 39 40 41 42
19 20 22 24 25 26 27 28 29 29 30 32 34 36 37 38 39 39 39 42 43 43 43 43 44 45 45 44 41 40 41 41 39 41 39 38 36 34 33 31 33 35 36 37
18 18 20 21 23 24 25 26 27 28 28 29 31 32 34 35 37 38 38 37 38 40 41 39 39 39 39 39 42 43 41 43 44 42 40 40 37 37 33 33 35 35 35 35
17 18 18 18 19 20 21 22 24 25 27 29 31 32 33 32 31 31 31 30 29 29 29 31 33 35 37 38 41 43 45 44 46 43 41 40 31 38 37 38 41 40 45 44
13 15 16 16 18 19 21 22 22 23 24 25 26 27 27 27 26 26 28 30 32 33 33 30 31 32 32 35 38 39 38 37 33 35 39 39 39 40 39 40 43 48 45 44
14 16 17 17 17 19 18 17 16 16 16 17 17 18 19 20 21 23 23 23 23 22 22 24 27 26 28 28 28 27 27 28 30 34 38 36 33 38 40 38 45 47 47 46